Tracking 28888 objects as of 22-May-2024
HD Live streaming from Space Station
objects crossing your sky now

NSTAR A

Track NSTAR A now!
NSTAR A is classified as:


NORAD ID: 23651
Int'l Code: 1995-044A
Perigee: 36,035.3 km
Apogee: 36,201.4 km
Inclination: 12.3 °
Period: 1,452.7 minutes
Semi major axis: 42489 km
RCS: 15.8489 m2 (large)
Launch date: August 29, 1995
Source: Japan (JPN)
Launch site: FRENCH GUIANA (FRGUI)

Voice and TV broadcast to Japan and neighboring region.
Your satellite tracking list
Your tracking list is empty




NASA's NSSDC Master Catalog

Two Line Element Set (TLE):
1 23651U 95044A   24142.65529133  .00000037  00000-0  00000-0 0  9996
2 23651  12.3048  26.5902 0019557   5.9962 161.4355  0.99124922104412
Source of the keplerian elements: AFSPC